Regional Weather Roundup
Issued by NWS

Home | Current Version | Previous Version | Graphics & Text | Print | Product List | Glossary On
Versions: 1 2 3 4 5 6 7 8 9 10 11 12 13 14 15 16 17 18 19 20 21 22 23 24 25 26 27 28 29 30 31 32 33 34 35 36 37 38 39 40 41 42 43 44 45 46 47 48 49 50
000
ASUS43 KTOP 281808
RWRKS

WEATHER ROUNDUP FOR KANSAS
NATIONAL WEATHER SERVICE GOODLAND KS
100 PM CDT MON JUL 28 2014

NOTE:  "FAIR" INDICATES FEW OR NO CLOUDS BELOW 12,000 FEET WITH NO
SIGNIFICANT WEATHER AND/OR OBSTRUCTIONS TO VISIBILITY.

KSZ001>006-013>018-027>032-041>047-281900-
NORTHWEST KANSAS

CITY           SKY/WX    TMP DP  RH WIND       PRES   REMARKS
GOODLAND         N/A     80  55  42 S14       30.33F
6HR MIN TEMP:  60; 6HR MAX TEMP:  81;

HAYS           SUNNY     79  57  47 S5        30.30F
HILL CITY      SUNNY     82  58  43 SE12      30.30F
6HR MIN TEMP:  60; 6HR MAX TEMP:  83;

RUSSELL        SUNNY     79  58  48 MISG      30.29F
6HR MIN TEMP:  61; 6HR MAX TEMP:  79;

$$

KSZ061>065-074>080-084>089-281900-
SOUTHWEST KANSAS

CITY           SKY/WX    TMP DP  RH WIND       PRES   REMARKS
DODGE CITY     PTSUNNY   79  56  45 S10       30.31F
6HR MIN TEMP:  66; 6HR MAX TEMP:  80;

ELKHART          N/A     69  59  70 S10         N/A
GARDEN CITY    PTSUNNY   80  61  52 SE6       30.31F
6HR MIN TEMP:  67; 6HR MAX TEMP:  80; 6HR PCP: TRACE;

GREAT BEND     SUNNY     79  61  53 SE5       30.28F
LIBERAL        CLOUDY    75  55  50 SW12      30.36R
PRATT          MOSUNNY   81  54  39 CALM      30.31F
$$

KSZ066>073-081>083-090>101-281900-
SOUTHEAST KANSAS

CITY           SKY/WX    TMP DP  RH WIND       PRES   REMARKS
CHANUTE        SUNNY     80  59  48 NW13G20   30.24F
6HR MIN TEMP:  62; 6HR MAX TEMP:  80;

COFFEYVILLE    MOSUNNY   82  59  45 N8G21     30.22F
6HR MIN TEMP:  63; 6HR MAX TEMP:  83;

HUTCHINSON     SUNNY     82  60  47 N8        30.28F
6HR MIN TEMP:  64; 6HR MAX TEMP:  82;

MEDICINE LODGE   N/A     82  60  47 VRB3      30.28F
NEWTON         SUNNY     81  55  41 NW13G18   30.31F
PARSONS        SUNNY     82  59  45 N12G17    30.23F
6HR MIN TEMP:  59; 6HR MAX TEMP:  83;

WICHITA INTL   MOSUNNY   82  60  47 N9        30.27F
6HR MIN TEMP:  67; 6HR MAX TEMP:  83;

WICHITA JABRA  SUNNY     82  59  45 N16       30.26F
6HR MIN TEMP:  62; 6HR MAX TEMP:  83;

WICHITA MCCONL SUNNY     82  58  43 N12       30.27F
WINFIELD       SUNNY     83  60  45 N9        30.27F
6HR MIN TEMP:  61; 6HR MAX TEMP:  84;

$$

KSZ007>012-019>026-033>040-048>060-102>105-281900-
NORTHEAST KANSAS

CITY           SKY/WX    TMP DP  RH WIND       PRES   REMARKS
CONCORDIA      SUNNY     78  58  49 NW8       30.29F
6HR MIN TEMP:  60; 6HR MAX TEMP:  79;

EMPORIA        SUNNY     80  56  43 NW12      30.26F
6HR MIN TEMP:  60; 6HR MAX TEMP:  80;

LAWRENCE       MOSUNNY   80  60  50 N9        30.24S
6HR MIN TEMP:  60; 6HR MAX TEMP:  80;

MANHATTAN      SUNNY     81  56  42 VRB6      30.26F
6HR MIN TEMP:  63; 6HR MAX TEMP:  81;

MARYSVILLE     SUNNY     75  55  50 NW9G16    30.27F
OLATHE IND     MOSUNNY   77  58  51 N5        30.24S
6HR MIN TEMP:  61; 6HR MAX TEMP:  78;

OLATHE EXE     MOSUNNY   78  58  49 N7        30.23S
6HR MIN TEMP:  63; 6HR MAX TEMP:  78;

SALINA         SUNNY     83  55  38 NW8       30.28F
6HR MIN TEMP:  63; 6HR MAX TEMP:  84;

TOPEKA BILLARD MOSUNNY   81  58  45 NW10      30.25F
6HR MIN TEMP:  63; 6HR MAX TEMP:  81;

TOPEKA FORBES  SUNNY     79  57  46 VRB7G18   30.25F
6HR MIN TEMP:  63; 6HR MAX TEMP:  81;

$$



USA.gov is the U.S. government's official web portal to all federal, state and local government web resources and services.